Time,TemperatureF,DewpointF,PressureIn,WindDirection,WindDirectionDegrees,WindSpeedMPH,WindSpeedGustMPH,Humidity,HourlyPrecipIn,Conditions,Clouds,dailyrainin,SolarRadiationWatts/m^2,SoftwareType,DateUTC
2013-10-06 00:01:00,47.7,30.5,29.79,WNW,288,12.0,14.0,51,0.00,,---,0.00,0.00,VWS V14.01,2013-10-06 05:01:00,
2013-10-06 00:06:00,47.6,30.4,29.79,West,265,11.0,15.0,51,0.00,,---,0.00,0.00,VWS V14.01,2013-10-06 05:06:00,
2013-10-06 00:11:00,47.1,30.9,29.79,West,264,7.0,12.0,53,0.00,,---,0.00,0.00,VWS V14.01,2013-10-06 05:11:00,
2013-10-06 00:16:00,46.7,31.0,29.79,NW,309,10.0,14.0,54,0.00,,---,0.00,0.00,VWS V14.01,2013-10-06 05:16:00,
2013-10-06 00:21:00,46.5,30.8,29.79,West,275,11.0,12.0,54,0.00,,---,0.00,0.00,VWS V14.01,2013-10-06 05:21:00,
2013-10-06 00:27:00,46.4,30.7,29.79,West,260,12.0,17.0,54,0.00,,---,0.00,0.00,VWS V14.01,2013-10-06 05:27:00,
2013-10-06 00:32:00,46.1,30.9,29.79,West,270,14.0,14.0,55,0.00,,---,0.00,0.00,VWS V14.01,2013-10-06 05:32:00,
2013-10-06 00:37:00,46.1,30.9,29.79,West,263,10.0,16.0,55,0.00,,---,0.00,0.00,VWS V14.01,2013-10-06 05:37:00,
2013-10-06 00:42:00,46.2,30.9,29.79,West,280,13.0,19.0,55,0.00,,---,0.00,0.00,VWS V14.01,2013-10-06 05:42:00,
2013-10-06 00:47:00,46.2,30.9,29.79,West,261,10.0,15.0,55,0.00,,---,0.00,0.00,VWS V14.01,2013-10-06 05:47:00,
2013-10-06 00:52:00,46.1,30.9,29.79,West,272,17.0,17.0,55,0.00,,---,0.00,0.00,VWS V14.01,2013-10-06 05:52:00,
2013-10-06 00:57:00,46.0,31.2,29.79,West,278,6.0,19.0,56,0.00,,---,0.00,0.00,VWS V14.01,2013-10-06 05:57:00,
2013-10-06 01:02:00,46.0,30.8,29.79,WNW,285,17.0,17.0,55,0.00,,---,0.00,0.00,VWS V14.01,2013-10-06 06:02:00,
2013-10-06 01:07:00,46.0,30.8,29.79,West,274,12.0,12.0,55,0.00,,---,0.00,0.00,VWS V14.01,2013-10-06 06:07:00,
2013-10-06 01:12:00,45.8,31.0,29.79,West,272,11.0,16.0,56,0.00,,---,0.00,0.00,VWS V14.01,2013-10-06 06:12:00,
2013-10-06 01:17:00,45.2,31.3,29.78,WSW,258,11.0,12.0,58,0.00,,---,0.00,0.00,VWS V14.01,2013-10-06 06:17:00,
2013-10-06 01:22:00,44.6,31.2,29.78,West,261,10.0,14.0,59,0.00,,---,0.00,0.00,VWS V14.01,2013-10-06 06:22:00,
2013-10-06 01:27:00,44.2,31.6,29.78,West,271,12.0,13.0,61,0.00,,---,0.00,0.00,VWS V14.01,2013-10-06 06:27:00,
2013-10-06 01:33:00,44.1,31.5,29.79,West,263,11.0,15.0,61,0.00,,---,0.00,0.00,VWS V14.01,2013-10-06 06:33:00,
2013-10-06 01:38:00,44.1,31.5,29.79,West,260,10.0,14.0,61,0.00,,---,0.00,0.00,VWS V14.01,2013-10-06 06:38:00,
2013-10-06 01:43:00,44.1,31.5,29.79,West,275,13.0,18.0,61,0.00,,---,0.00,0.00,VWS V14.01,2013-10-06 06:43:00,
2013-10-06 01:48:00,44.1,31.9,29.79,West,264,15.0,15.0,62,0.00,,---,0.00,0.00,VWS V14.01,2013-10-06 06:48:00,
2013-10-06 01:53:00,44.2,31.6,29.79,West,277,8.0,16.0,61,0.00,,---,0.00,0.00,VWS V14.01,2013-10-06 06:53:00,
2013-10-06 01:58:00,44.1,31.9,29.79,West,270,10.0,14.0,62,0.00,,---,0.00,0.00,VWS V14.01,2013-10-06 06:58:00,
2013-10-06 02:03:00,44.1,31.9,29.79,West,271,6.0,12.0,62,0.00,,---,0.00,0.00,VWS V14.01,2013-10-06 07:03:00,
2013-10-06 02:08:00,44.1,31.9,29.79,West,274,9.0,13.0,62,0.00,,---,0.00,0.00,VWS V14.01,2013-10-06 07:08:00,
2013-10-06 02:13:00,44.1,31.9,29.79,West,268,11.0,14.0,62,0.00,,---,0.00,0.00,VWS V14.01,2013-10-06 07:13:00,
2013-10-06 02:18:00,43.9,31.7,29.79,West,271,9.0,12.0,62,0.00,,---,0.00,0.00,VWS V14.01,2013-10-06 07:18:00,
2013-10-06 02:23:00,43.8,32.0,29.79,West,272,8.0,10.0,63,0.00,,---,0.00,0.00,VWS V14.01,2013-10-06 07:23:00,
2013-10-06 02:28:00,43.8,32.4,29.79,West,271,6.0,11.0,64,0.00,,---,0.00,0.00,VWS V14.01,2013-10-06 07:28:00,
2013-10-06 02:33:00,43.6,32.2,29.79,West,275,11.0,13.0,64,0.00,,---,0.00,0.00,VWS V14.01,2013-10-06 07:33:00,
2013-10-06 02:38:00,44.1,32.7,29.79,West,274,12.0,17.0,64,0.00,,---,0.00,0.00,VWS V14.01,2013-10-06 07:38:00,
2013-10-06 02:43:00,44.8,33.4,29.79,WNW,291,10.0,20.0,64,0.00,,---,0.00,0.00,VWS V14.01,2013-10-06 07:43:00,
2013-10-06 02:48:00,45.4,33.6,29.78,WNW,294,14.0,20.0,63,0.00,,---,0.00,0.00,VWS V14.01,2013-10-06 07:48:00,
2013-10-06 02:53:00,45.7,33.4,29.78,WNW,298,17.0,24.0,62,0.00,,---,0.00,0.00,VWS V14.01,2013-10-06 07:53:00,
2013-10-06 02:58:00,46.1,33.4,29.78,West,277,16.0,20.0,61,0.00,,---,0.00,0.00,VWS V14.01,2013-10-06 07:58:00,
2013-10-06 03:04:00,46.4,33.7,29.77,WNW,287,18.0,24.0,61,0.00,,---,0.00,0.00,VWS V14.01,2013-10-06 08:04:00,
2013-10-06 03:09:00,46.5,33.4,29.77,WNW,292,16.0,24.0,60,0.00,,---,0.00,0.00,VWS V14.01,2013-10-06 08:09:00,
2013-10-06 03:14:00,46.5,33.4,29.77,WNW,292,17.0,24.0,60,0.00,,---,0.00,0.00,VWS V14.01,2013-10-06 08:14:00,
2013-10-06 03:19:00,46.5,33.4,29.77,NW,308,19.0,25.0,60,0.00,,---,0.00,0.00,VWS V14.01,2013-10-06 08:19:00,
2013-10-06 03:24:00,46.4,33.3,29.77,North,0,15.0,18.0,60,0.00,,---,0.00,0.00,VWS V14.01,2013-10-06 08:24:00,
2013-10-06 03:29:00,46.1,33.0,29.77,West,275,13.0,19.0,60,0.00,,---,0.00,0.00,VWS V14.01,2013-10-06 08:29:00,
2013-10-06 03:34:00,46.0,33.3,29.77,WNW,285,15.0,19.0,61,0.00,,---,0.00,0.00,VWS V14.01,2013-10-06 08:34:00,
2013-10-06 03:39:00,45.7,33.4,29.77,WNW,284,14.0,19.0,62,0.00,,---,0.00,0.00,VWS V14.01,2013-10-06 08:39:00,
2013-10-06 03:44:00,45.4,33.2,29.77,WNW,294,13.0,18.0,62,0.00,,---,0.00,0.00,VWS V14.01,2013-10-06 08:44:00,
2013-10-06 03:49:00,45.4,33.2,29.77,WNW,289,17.0,17.0,62,0.00,,---,0.00,0.00,VWS V14.01,2013-10-06 08:49:00,
2013-10-06 03:54:00,45.5,33.2,29.77,WNW,287,13.0,20.0,62,0.00,,---,0.00,0.00,VWS V14.01,2013-10-06 08:54:00,
2013-10-06 04:00:00,45.7,33.4,29.77,West,275,13.0,20.0,62,0.00,,---,0.00,0.00,VWS V14.01,2013-10-06 09:00:00,
2013-10-06 04:05:00,45.7,33.4,29.77,WNW,288,21.0,21.0,62,0.00,,---,0.00,0.00,VWS V14.01,2013-10-06 09:05:00,
2013-10-06 04:10:00,45.8,33.1,29.77,West,277,16.0,22.0,61,0.00,,---,0.00,0.00,VWS V14.01,2013-10-06 09:10:00,
2013-10-06 04:15:00,45.8,33.1,29.76,WNW,287,20.0,21.0,61,0.00,,---,0.00,0.00,VWS V14.01,2013-10-06 09:15:00,
2013-10-06 04:20:00,45.8,33.1,29.76,WNW,296,14.0,20.0,61,0.00,,---,0.00,0.00,VWS V14.01,2013-10-06 09:20:00,
2013-10-06 04:25:00,45.7,33.0,29.76,West,265,8.0,9.0,61,0.00,,---,0.00,0.00,VWS V14.01,2013-10-06 09:25:00,
2013-10-06 04:30:00,45.4,33.2,29.77,WNW,287,11.0,16.0,62,0.00,,---,0.00,0.00,VWS V14.01,2013-10-06 09:30:00,
2013-10-06 04:35:00,45.4,33.2,29.77,West,275,10.0,12.0,62,0.00,,---,0.00,0.00,VWS V14.01,2013-10-06 09:35:00,
2013-10-06 04:40:00,45.2,33.4,29.77,West,261,17.0,17.0,63,0.00,,---,0.00,0.00,VWS V14.01,2013-10-06 09:40:00,
2013-10-06 04:45:00,45.4,34.0,29.77,West,281,13.0,13.0,64,0.00,,---,0.00,0.00,VWS V14.01,2013-10-06 09:45:00,
2013-10-06 04:50:00,45.5,34.0,29.77,West,274,16.0,16.0,64,0.00,,---,0.00,0.00,VWS V14.01,2013-10-06 09:50:00,
2013-10-06 04:55:00,45.5,34.4,29.77,WNW,302,12.0,16.0,65,0.00,,---,0.00,0.00,VWS V14.01,2013-10-06 09:55:00,
2013-10-06 05:01:00,45.7,34.6,29.77,WNW,298,12.0,19.0,65,0.00,,---,0.00,0.00,VWS V14.01,2013-10-06 10:01:00,
2013-10-06 05:06:00,45.7,35.0,29.77,WNW,284,13.0,15.0,66,0.00,,---,0.00,0.00,VWS V14.01,2013-10-06 10:06:00,
2013-10-06 05:11:00,46.0,35.3,29.77,NW,304,20.0,20.0,66,0.00,,---,0.00,0.00,VWS V14.01,2013-10-06 10:11:00,
2013-10-06 05:16:00,46.1,35.4,29.77,WNW,285,14.0,14.0,66,0.00,,---,0.00,0.00,VWS V14.01,2013-10-06 10:16:00,
2013-10-06 05:21:00,46.2,35.5,29.77,NNW,335,16.0,19.0,66,0.00,,---,0.00,0.00,VWS V14.01,2013-10-06 10:21:00,
2013-10-06 05:26:00,46.4,35.3,29.77,North,352,21.0,21.0,65,0.00,,---,0.00,0.00,VWS V14.01,2013-10-06 10:26:00,
2013-10-06 05:31:00,46.7,35.6,29.77,North,0,15.0,16.0,65,0.00,,---,0.00,0.00,VWS V14.01,2013-10-06 10:31:00,
2013-10-06 05:36:00,46.7,35.6,29.77,NW,304,13.0,17.0,65,0.00,,---,0.00,0.00,VWS V14.01,2013-10-06 10:36:00,
2013-10-06 05:41:00,46.8,35.7,29.77,NW,309,17.0,17.0,65,0.00,,---,0.00,0.00,VWS V14.01,2013-10-06 10:41:00,
2013-10-06 05:46:00,46.8,35.7,29.77,WNW,299,14.0,17.0,65,0.00,,---,0.00,0.00,VWS V14.01,2013-10-06 10:46:00,
2013-10-06 05:51:00,46.7,35.6,29.77,WSW,253,8.0,12.0,65,0.00,,---,0.00,0.00,VWS V14.01,2013-10-06 10:51:00,
2013-10-06 05:56:00,46.4,35.7,29.77,West,275,8.0,11.0,66,0.00,,---,0.00,0.00,VWS V14.01,2013-10-06 10:56:00,
2013-10-06 06:01:00,46.2,35.1,29.78,West,274,8.0,13.0,65,0.00,,---,0.00,0.00,VWS V14.01,2013-10-06 11:01:00,
2013-10-06 06:06:00,46.1,35.0,29.78,West,268,12.0,12.0,65,0.00,,---,0.00,0.00,VWS V14.01,2013-10-06 11:06:00,
2013-10-06 06:11:00,46.1,34.6,29.78,West,267,17.0,17.0,64,0.00,,---,0.00,0.00,VWS V14.01,2013-10-06 11:11:00,
2013-10-06 06:16:00,46.2,33.9,29.79,WNW,285,12.0,16.0,62,0.00,,---,0.00,0.00,VWS V14.01,2013-10-06 11:16:00,
2013-10-06 06:21:00,46.4,33.7,29.79,West,272,12.0,13.0,61,0.00,,---,0.00,0.00,VWS V14.01,2013-10-06 11:21:00,
2013-10-06 06:27:00,46.4,32.9,29.79,WNW,291,10.0,16.0,59,0.00,,---,0.00,0.00,VWS V14.01,2013-10-06 11:27:00,
2013-10-06 06:32:00,46.5,32.5,29.79,West,268,12.0,18.0,58,0.00,,---,0.00,0.00,VWS V14.01,2013-10-06 11:32:00,
2013-10-06 06:37:00,46.7,32.3,29.79,WNW,282,11.0,17.0,57,0.00,,---,0.00,0.00,VWS V14.01,2013-10-06 11:37:00,
2013-10-06 06:42:00,46.8,32.0,29.79,WNW,284,19.0,19.0,56,0.00,,---,0.00,0.00,VWS V14.01,2013-10-06 11:42:00,
2013-10-06 06:47:00,47.0,31.7,29.79,West,280,13.0,20.0,55,0.00,,---,0.00,0.00,VWS V14.01,2013-10-06 11:47:00,
2013-10-06 06:52:00,46.8,31.5,29.79,West,261,12.0,16.0,55,0.00,,---,0.00,0.00,VWS V14.01,2013-10-06 11:52:00,
2013-10-06 06:57:00,46.8,31.5,29.79,West,281,14.0,17.0,55,0.00,,---,0.00,0.00,VWS V14.01,2013-10-06 11:57:00,
2013-10-06 07:02:00,46.8,31.5,29.79,West,274,13.0,21.0,55,0.00,,---,0.00,0.00,VWS V14.01,2013-10-06 12:02:00,
2013-10-06 07:07:00,46.8,31.5,29.79,West,270,10.0,19.0,55,0.00,,---,0.00,0.00,VWS V14.01,2013-10-06 12:07:00,
2013-10-06 07:12:00,46.7,31.4,29.79,West,272,16.0,20.0,55,0.00,,---,0.00,0.00,VWS V14.01,2013-10-06 12:12:00,
2013-10-06 07:17:00,46.5,31.2,29.79,WNW,302,17.0,21.0,55,0.00,,---,0.00,0.00,VWS V14.01,2013-10-06 12:17:00,
2013-10-06 07:22:00,46.2,30.9,29.79,NW,304,13.0,18.0,55,0.00,,---,0.00,0.00,VWS V14.01,2013-10-06 12:22:00,
2013-10-06 07:27:00,46.2,31.4,29.79,West,268,9.0,18.0,56,0.00,,---,0.00,0.00,VWS V14.01,2013-10-06 12:27:00,
2013-10-06 07:32:00,46.1,31.3,29.80,West,275,11.0,16.0,56,0.00,,---,0.00,0.00,VWS V14.01,2013-10-06 12:32:00,
2013-10-06 07:37:00,46.1,31.3,29.80,West,277,14.0,17.0,56,0.00,,---,0.00,0.00,VWS V14.01,2013-10-06 12:37:00,
2013-10-06 07:42:00,46.1,31.7,29.80,WNW,282,12.0,16.0,57,0.00,,---,0.00,9.00,VWS V14.01,2013-10-06 12:42:00,
2013-10-06 07:47:00,46.1,31.7,29.80,WNW,287,11.0,17.0,57,0.00,,---,0.00,12.00,VWS V14.01,2013-10-06 12:47:00,
2013-10-06 07:52:00,46.2,32.2,29.80,West,280,12.0,17.0,58,0.00,,---,0.00,18.00,VWS V14.01,2013-10-06 12:52:00,
2013-10-06 07:58:00,46.2,32.2,29.80,West,278,9.0,16.0,58,0.00,,---,0.00,19.00,VWS V14.01,2013-10-06 12:58:00,
2013-10-06 08:03:00,46.4,32.4,29.80,WNW,285,11.0,17.0,58,0.00,,---,0.00,19.00,VWS V14.01,2013-10-06 13:03:00,
2013-10-06 08:08:00,46.5,32.5,29.80,WNW,285,14.0,18.0,58,0.00,,---,0.00,25.00,VWS V14.01,2013-10-06 13:08:00,
2013-10-06 08:13:00,46.7,33.2,29.80,West,280,10.0,19.0,59,0.00,,---,0.00,30.00,VWS V14.01,2013-10-06 13:13:00,
2013-10-06 08:18:00,46.8,33.2,29.81,WNW,285,11.0,17.0,59,0.00,,---,0.00,35.00,VWS V14.01,2013-10-06 13:18:00,
2013-10-06 08:23:00,46.8,33.2,29.81,WNW,285,11.0,16.0,59,0.00,,---,0.00,55.00,VWS V14.01,2013-10-06 13:23:00,
2013-10-06 08:28:00,46.8,33.2,29.81,WNW,288,13.0,16.0,59,0.00,,---,0.00,49.00,VWS V14.01,2013-10-06 13:28:00,
2013-10-06 08:33:00,46.7,33.2,29.81,West,280,10.0,18.0,59,0.00,,---,0.00,46.00,VWS V14.01,2013-10-06 13:33:00,
2013-10-06 08:38:00,46.5,32.5,29.81,WNW,287,12.0,16.0,58,0.00,,---,0.00,56.00,VWS V14.01,2013-10-06 13:38:00,
2013-10-06 08:43:00,46.4,32.4,29.81,NW,306,13.0,16.0,58,0.00,,---,0.00,97.00,VWS V14.01,2013-10-06 13:43:00,
2013-10-06 08:48:00,46.5,32.5,29.82,West,278,14.0,19.0,58,0.00,,---,0.00,165.00,VWS V14.01,2013-10-06 13:48:00,
2013-10-06 08:53:00,47.0,32.6,29.82,WNW,302,16.0,16.0,57,0.00,,---,0.00,151.00,VWS V14.01,2013-10-06 13:53:00,
2013-10-06 08:58:00,47.1,32.2,29.82,West,280,17.0,17.0,56,0.00,,---,0.00,72.00,VWS V14.01,2013-10-06 13:58:00,
2013-10-06 09:03:00,47.3,32.4,29.82,NW,305,12.0,18.0,56,0.00,,---,0.00,104.00,VWS V14.01,2013-10-06 14:03:00,
2013-10-06 09:08:00,47.4,32.1,29.82,WNW,302,11.0,19.0,55,0.00,,---,0.00,169.00,VWS V14.01,2013-10-06 14:08:00,
2013-10-06 09:13:00,47.9,32.5,29.82,WNW,302,13.0,18.0,55,0.00,,---,0.00,290.00,VWS V14.01,2013-10-06 14:13:00,
2013-10-06 09:19:00,48.5,33.1,29.83,WNW,289,11.0,14.0,55,0.00,,---,0.00,304.00,VWS V14.01,2013-10-06 14:19:00,
2013-10-06 09:24:00,48.8,32.4,29.83,WNW,285,12.0,21.0,53,0.00,,---,0.00,304.00,VWS V14.01,2013-10-06 14:24:00,
2013-10-06 09:29:00,49.1,32.7,29.83,WNW,291,12.0,19.0,53,0.00,,---,0.00,317.00,VWS V14.01,2013-10-06 14:29:00,
2013-10-06 09:34:00,49.4,33.0,29.83,WNW,294,16.0,20.0,53,0.00,,---,0.00,334.00,VWS V14.01,2013-10-06 14:34:00,
2013-10-06 09:39:00,49.6,32.7,29.83,North,0,12.0,22.0,52,0.00,,---,0.00,343.00,VWS V14.01,2013-10-06 14:39:00,
2013-10-06 09:44:00,50.1,33.2,29.83,NW,311,16.0,24.0,52,0.00,,---,0.00,366.00,VWS V14.01,2013-10-06 14:44:00,
2013-10-06 09:49:00,50.5,33.5,29.82,WNW,294,17.0,22.0,52,0.00,,---,0.00,377.00,VWS V14.01,2013-10-06 14:49:00,
2013-10-06 09:54:00,51.0,34.0,29.82,WNW,288,25.0,25.0,52,0.00,,---,0.00,399.00,VWS V14.01,2013-10-06 14:54:00,
2013-10-06 09:59:00,51.0,34.0,29.82,NW,309,14.0,26.0,52,0.00,,---,0.00,401.00,VWS V14.01,2013-10-06 14:59:00,
2013-10-06 10:04:00,51.3,34.3,29.82,WNW,299,24.0,25.0,52,0.00,,---,0.00,417.00,VWS V14.01,2013-10-06 15:04:00,
2013-10-06 10:09:00,51.3,33.8,29.82,North,356,19.0,30.0,51,0.00,,---,0.00,424.00,VWS V14.01,2013-10-06 15:09:00,
2013-10-06 10:14:00,51.7,34.2,29.83,NW,306,17.0,26.0,51,0.00,,---,0.00,438.00,VWS V14.01,2013-10-06 15:14:00,
2013-10-06 10:19:00,52.0,34.0,29.83,North,0,16.0,24.0,50,0.00,,---,0.00,456.00,VWS V14.01,2013-10-06 15:19:00,
2013-10-06 10:24:00,52.6,34.5,29.83,NW,304,27.0,27.0,50,0.00,,---,0.00,475.00,VWS V14.01,2013-10-06 15:24:00,
2013-10-06 10:30:00,52.9,34.8,29.83,North,0,21.0,22.0,50,0.00,,---,0.00,503.00,VWS V14.01,2013-10-06 15:30:00,
2013-10-06 10:35:00,53.5,35.3,29.83,WNW,288,11.0,22.0,50,0.00,,---,0.00,493.00,VWS V14.01,2013-10-06 15:35:00,
2013-10-06 10:40:00,53.5,34.8,29.83,North,354,16.0,29.0,49,0.00,,---,0.00,517.00,VWS V14.01,2013-10-06 15:40:00,
2013-10-06 10:45:00,53.8,35.6,29.83,NW,305,13.0,24.0,50,0.00,,---,0.00,621.00,VWS V14.01,2013-10-06 15:45:00,
2013-10-06 10:50:00,54.1,34.9,29.83,NW,319,20.0,25.0,48,0.00,,---,0.00,289.00,VWS V14.01,2013-10-06 15:50:00,
2013-10-06 10:55:00,54.1,35.4,29.83,NW,309,13.0,22.0,49,0.00,,---,0.00,563.00,VWS V14.01,2013-10-06 15:55:00,
2013-10-06 11:00:00,54.8,36.0,29.83,NNW,337,7.0,22.0,49,0.00,,---,0.00,614.00,VWS V14.01,2013-10-06 16:00:00,
2013-10-06 11:05:00,55.1,35.8,29.83,North,353,14.0,27.0,48,0.00,,---,0.00,764.00,VWS V14.01,2013-10-06 16:05:00,
2013-10-06 11:10:00,54.7,35.4,29.83,North,0,22.0,28.0,48,0.00,,---,0.00,252.00,VWS V14.01,2013-10-06 16:10:00,
2013-10-06 11:15:00,54.1,35.9,29.83,NNW,346,17.0,28.0,50,0.00,,---,0.00,403.00,VWS V14.01,2013-10-06 16:15:00,
2013-10-06 11:20:00,54.5,35.8,29.83,WNW,285,18.0,25.0,49,0.00,,---,0.00,537.00,VWS V14.01,2013-10-06 16:20:00,
2013-10-06 11:25:00,54.8,35.5,29.83,WNW,287,25.0,27.0,48,0.00,,---,0.00,306.00,VWS V14.01,2013-10-06 16:25:00,
2013-10-06 11:30:00,55.0,35.7,29.83,North,350,16.0,27.0,48,0.00,,---,0.00,623.00,VWS V14.01,2013-10-06 16:30:00,
2013-10-06 11:35:00,55.3,36.0,29.83,NW,308,14.0,25.0,48,0.00,,---,0.00,679.00,VWS V14.01,2013-10-06 16:35:00,
2013-10-06 11:40:00,55.4,36.1,29.83,NNW,339,16.0,27.0,48,0.00,,---,0.00,493.00,VWS V14.01,2013-10-06 16:40:00,
2013-10-06 11:45:00,56.0,36.6,29.82,WNW,301,18.0,24.0,48,0.00,,---,0.00,632.00,VWS V14.01,2013-10-06 16:45:00,
2013-10-06 11:50:00,55.9,36.5,29.82,WNW,292,26.0,26.0,48,0.00,,---,0.00,639.00,VWS V14.01,2013-10-06 16:50:00,
2013-10-06 11:55:00,55.9,36.5,29.82,NW,318,17.0,26.0,48,0.00,,---,0.00,646.00,VWS V14.01,2013-10-06 16:55:00,
2013-10-06 12:00:00,56.5,37.1,29.82,North,350,18.0,24.0,48,0.00,,---,0.00,651.00,VWS V14.01,2013-10-06 17:00:00,
2013-10-06 12:05:00,56.9,36.9,29.82,North,0,20.0,20.0,47,0.00,,---,0.00,653.00,VWS V14.01,2013-10-06 17:05:00,
2013-10-06 12:10:00,57.5,36.9,29.82,NNW,347,18.0,21.0,46,0.00,,---,0.00,662.00,VWS V14.01,2013-10-06 17:10:00,
2013-10-06 12:16:00,57.8,37.2,29.82,NW,320,14.0,17.0,46,0.00,,---,0.00,663.00,VWS V14.01,2013-10-06 17:16:00,
2013-10-06 12:21:00,58.1,37.5,29.82,West,260,13.0,20.0,46,0.00,,---,0.00,669.00,VWS V14.01,2013-10-06 17:21:00,
2013-10-06 12:26:00,58.3,37.1,29.82,NNW,346,17.0,19.0,45,0.00,,---,0.00,672.00,VWS V14.01,2013-10-06 17:26:00,
2013-10-06 12:31:00,58.4,37.2,29.82,North,0,22.0,31.0,45,0.00,,---,0.00,667.00,VWS V14.01,2013-10-06 17:31:00,
2013-10-06 12:36:00,59.0,37.1,29.82,WNW,296,13.0,19.0,44,0.00,,---,0.00,44.00,VWS V14.01,2013-10-06 17:36:00,
2013-10-06 12:41:00,59.3,37.4,29.82,NW,318,11.0,17.0,44,0.00,,---,0.00,44.00,VWS V14.01,2013-10-06 17:41:00,
2013-10-06 12:46:00,59.5,37.6,29.82,WNW,289,18.0,20.0,44,0.00,,---,0.00,69.00,VWS V14.01,2013-10-06 17:46:00,
2013-10-06 12:51:00,59.3,37.4,29.82,North,0,21.0,22.0,44,0.00,,---,0.00,690.00,VWS V14.01,2013-10-06 17:51:00,
2013-10-06 12:56:00,59.6,37.7,29.82,NW,308,18.0,21.0,44,0.00,,---,0.00,699.00,VWS V14.01,2013-10-06 17:56:00,
2013-10-06 13:01:00,59.9,38.0,29.82,WNW,299,12.0,14.0,44,0.00,,---,0.00,732.00,VWS V14.01,2013-10-06 18:01:00,
2013-10-06 13:06:00,60.7,38.1,29.82,NW,309,19.0,22.0,43,0.00,,---,0.00,181.00,VWS V14.01,2013-10-06 18:06:00,
2013-10-06 13:11:00,60.4,37.2,29.82,North,0,14.0,24.0,42,0.00,,---,0.00,139.00,VWS V14.01,2013-10-06 18:11:00,
2013-10-06 13:16:00,60.2,36.4,29.82,WNW,301,19.0,22.0,41,0.00,,---,0.00,84.00,VWS V14.01,2013-10-06 18:16:00,
2013-10-06 13:21:00,60.9,36.4,29.82,North,0,13.0,21.0,40,0.00,,---,0.00,46.00,VWS V14.01,2013-10-06 18:21:00,
2013-10-06 13:26:00,61.0,37.2,29.82,NW,315,27.0,29.0,41,0.00,,---,0.00,97.00,VWS V14.01,2013-10-06 18:26:00,
2013-10-06 13:32:00,61.2,37.3,29.81,NW,319,19.0,20.0,41,0.00,,---,0.00,690.00,VWS V14.01,2013-10-06 18:32:00,
2013-10-06 13:37:00,61.6,37.1,29.81,WNW,291,14.0,20.0,40,0.00,,---,0.00,690.00,VWS V14.01,2013-10-06 18:37:00,
2013-10-06 13:42:00,61.6,36.4,29.81,WNW,292,17.0,21.0,39,0.00,,---,0.00,389.00,VWS V14.01,2013-10-06 18:42:00,
2013-10-06 13:47:00,62.0,37.4,29.80,NW,304,24.0,25.0,40,0.00,,---,0.00,213.00,VWS V14.01,2013-10-06 18:47:00,
2013-10-06 13:52:00,62.1,36.9,29.80,NNW,343,22.0,27.0,39,0.00,,---,0.00,141.00,VWS V14.01,2013-10-06 18:52:00,
2013-10-06 13:57:00,62.1,36.9,29.80,NW,306,21.0,26.0,39,0.00,,---,0.00,457.00,VWS V14.01,2013-10-06 18:57:00,
2013-10-06 14:03:00,62.4,36.5,29.79,WNW,302,21.0,26.0,38,0.00,,---,0.00,62.00,VWS V14.01,2013-10-06 19:03:00,
2013-10-06 14:08:00,62.7,36.1,29.79,North,0,11.0,25.0,37,0.00,,---,0.00,46.00,VWS V14.01,2013-10-06 19:08:00,
2013-10-06 14:13:00,63.1,35.7,29.79,WNW,282,20.0,25.0,36,0.00,,---,0.00,55.00,VWS V14.01,2013-10-06 19:13:00,
2013-10-06 14:18:00,63.4,36.0,29.78,NW,309,15.0,21.0,36,0.00,,---,0.00,53.00,VWS V14.01,2013-10-06 19:18:00,
2013-10-06 14:23:00,63.9,35.7,29.78,North,349,19.0,21.0,35,0.00,,---,0.00,53.00,VWS V14.01,2013-10-06 19:23:00,
2013-10-06 14:28:00,64.2,36.7,29.78,WNW,301,17.0,24.0,36,0.00,,---,0.00,264.00,VWS V14.01,2013-10-06 19:28:00,
2013-10-06 14:33:00,64.3,36.1,29.78,NNW,337,17.0,20.0,35,0.00,,---,0.00,561.00,VWS V14.01,2013-10-06 19:33:00,
2013-10-06 14:38:00,64.5,35.5,29.78,NW,309,18.0,24.0,34,0.00,,---,0.00,644.00,VWS V14.01,2013-10-06 19:38:00,
2013-10-06 14:43:00,64.5,35.5,29.78,NNW,330,19.0,24.0,34,0.00,,---,0.00,582.00,VWS V14.01,2013-10-06 19:43:00,
2013-10-06 14:48:00,64.7,34.2,29.78,WNW,291,16.0,27.0,32,0.00,,---,0.00,635.00,VWS V14.01,2013-10-06 19:48:00,
2013-10-06 14:53:00,64.7,34.2,29.78,NNW,329,18.0,25.0,32,0.00,,---,0.00,630.00,VWS V14.01,2013-10-06 19:53:00,
2013-10-06 14:59:00,64.7,34.2,29.78,North,354,13.0,22.0,32,0.00,,---,0.00,623.00,VWS V14.01,2013-10-06 19:59:00,
2013-10-06 15:04:00,65.3,33.9,29.77,North,357,12.0,22.0,31,0.00,,---,0.00,614.00,VWS V14.01,2013-10-06 20:04:00,
2013-10-06 15:09:00,65.6,34.2,29.77,West,278,10.0,19.0,31,0.00,,---,0.00,605.00,VWS V14.01,2013-10-06 20:09:00,
2013-10-06 15:14:00,65.8,31.8,29.77,NE,40,16.0,27.0,28,0.00,,---,0.00,596.00,VWS V14.01,2013-10-06 20:14:00,
2013-10-06 15:19:00,65.8,30.9,29.77,NNW,337,21.0,21.0,27,0.00,,---,0.00,586.00,VWS V14.01,2013-10-06 20:19:00,
2013-10-06 15:24:00,65.8,30.9,29.77,WNW,295,21.0,28.0,27,0.00,,---,0.00,568.00,VWS V14.01,2013-10-06 20:24:00,
2013-10-06 15:29:00,65.5,29.7,29.77,NNW,328,16.0,27.0,26,0.00,,---,0.00,565.00,VWS V14.01,2013-10-06 20:29:00,
2013-10-06 15:34:00,65.8,30.0,29.77,WNW,288,25.0,25.0,26,0.00,,---,0.00,556.00,VWS V14.01,2013-10-06 20:34:00,
2013-10-06 15:39:00,66.3,30.4,29.77,NW,323,17.0,25.0,26,0.00,,---,0.00,544.00,VWS V14.01,2013-10-06 20:39:00,
2013-10-06 15:44:00,66.3,29.5,29.77,North,359,17.0,29.0,25,0.00,,---,0.00,538.00,VWS V14.01,2013-10-06 20:44:00,
2013-10-06 15:50:00,66.3,28.5,29.77,North,352,11.0,21.0,24,0.00,,---,0.00,531.00,VWS V14.01,2013-10-06 20:50:00,
2013-10-06 15:55:00,66.3,27.4,29.77,WNW,302,13.0,25.0,23,0.00,,---,0.00,514.00,VWS V14.01,2013-10-06 20:55:00,
2013-10-06 16:00:00,66.6,27.7,29.77,NW,318,17.0,21.0,23,0.00,,---,0.00,510.00,VWS V14.01,2013-10-06 21:00:00,
2013-10-06 16:05:00,67.1,29.1,29.77,NW,306,18.0,18.0,24,0.00,,---,0.00,491.00,VWS V14.01,2013-10-06 21:05:00,
2013-10-06 16:10:00,67.1,25.9,29.77,North,352,19.0,24.0,21,0.00,,---,0.00,477.00,VWS V14.01,2013-10-06 21:10:00,
2013-10-06 16:15:00,66.8,25.6,29.78,NNW,347,17.0,21.0,21,0.00,,---,0.00,465.00,VWS V14.01,2013-10-06 21:15:00,
2013-10-06 16:20:00,66.8,24.5,29.78,North,0,13.0,25.0,20,0.00,,---,0.00,450.00,VWS V14.01,2013-10-06 21:20:00,
2013-10-06 16:25:00,67.1,23.5,29.78,WNW,294,14.0,22.0,19,0.00,,---,0.00,438.00,VWS V14.01,2013-10-06 21:25:00,
2013-10-06 16:30:00,67.6,22.6,29.78,WNW,295,13.0,21.0,18,0.00,,---,0.00,422.00,VWS V14.01,2013-10-06 21:30:00,
2013-10-06 16:35:00,67.8,22.8,29.78,WNW,302,20.0,20.0,18,0.00,,---,0.00,408.00,VWS V14.01,2013-10-06 21:35:00,
2013-10-06 16:40:00,67.9,22.9,29.78,NNW,328,27.0,27.0,18,0.00,,---,0.00,398.00,VWS V14.01,2013-10-06 21:40:00,
2013-10-06 16:45:00,67.9,22.9,29.77,North,353,13.0,17.0,18,0.00,,---,0.00,392.00,VWS V14.01,2013-10-06 21:45:00,
2013-10-06 16:50:00,68.3,24.5,29.77,WNW,291,21.0,22.0,19,0.00,,---,0.00,370.00,VWS V14.01,2013-10-06 21:50:00,
2013-10-06 16:56:00,68.3,24.5,29.77,NW,316,17.0,17.0,19,0.00,,---,0.00,354.00,VWS V14.01,2013-10-06 21:56:00,
2013-10-06 17:01:00,68.4,21.9,29.77,NW,306,22.0,22.0,17,0.00,,---,0.00,340.00,VWS V14.01,2013-10-06 22:01:00,
2013-10-06 17:06:00,68.4,21.9,29.77,NW,305,17.0,22.0,17,0.00,,---,0.00,327.00,VWS V14.01,2013-10-06 22:06:00,
2013-10-06 17:11:00,68.6,22.1,29.77,WNW,298,10.0,19.0,17,0.00,,---,0.00,306.00,VWS V14.01,2013-10-06 22:11:00,
2013-10-06 17:16:00,68.8,20.8,29.77,NW,316,17.0,21.0,16,0.00,,---,0.00,292.00,VWS V14.01,2013-10-06 22:16:00,
2013-10-06 17:21:00,68.9,20.9,29.77,NW,304,9.0,18.0,16,0.00,,---,0.00,274.00,VWS V14.01,2013-10-06 22:21:00,
2013-10-06 17:26:00,68.9,20.9,29.77,WNW,299,17.0,22.0,16,0.00,,---,0.00,257.00,VWS V14.01,2013-10-06 22:26:00,
2013-10-06 17:31:00,69.1,21.1,29.78,WNW,291,16.0,17.0,16,0.00,,---,0.00,241.00,VWS V14.01,2013-10-06 22:31:00,
2013-10-06 17:36:00,68.9,17.8,29.78,WNW,296,14.0,24.0,14,0.00,,---,0.00,227.00,VWS V14.01,2013-10-06 22:36:00,
2013-10-06 17:41:00,68.8,19.3,29.78,WNW,288,13.0,19.0,15,0.00,,---,0.00,222.00,VWS V14.01,2013-10-06 22:41:00,
2013-10-06 17:46:00,69.1,19.5,29.78,North,349,13.0,19.0,15,0.00,,---,0.00,202.00,VWS V14.01,2013-10-06 22:46:00,
2013-10-06 17:51:00,68.9,19.4,29.78,WNW,285,12.0,13.0,15,0.00,,---,0.00,185.00,VWS V14.01,2013-10-06 22:51:00,
2013-10-06 17:56:00,68.8,19.3,29.78,North,350,8.0,19.0,15,0.00,,---,0.00,174.00,VWS V14.01,2013-10-06 22:56:00,
2013-10-06 18:01:00,68.6,19.1,29.78,WNW,299,20.0,24.0,15,0.00,,---,0.00,153.00,VWS V14.01,2013-10-06 23:01:00,
2013-10-06 18:06:00,68.4,20.5,29.78,WNW,301,10.0,20.0,16,0.00,,---,0.00,134.00,VWS V14.01,2013-10-06 23:06:00,
2013-10-06 18:11:00,68.4,20.5,29.78,WNW,301,12.0,18.0,16,0.00,,---,0.00,120.00,VWS V14.01,2013-10-06 23:11:00,
2013-10-06 18:17:00,68.3,20.4,29.78,NNW,347,21.0,21.0,16,0.00,,---,0.00,104.00,VWS V14.01,2013-10-06 23:17:00,
2013-10-06 18:22:00,68.1,20.2,29.78,NNW,347,12.0,17.0,16,0.00,,---,0.00,88.00,VWS V14.01,2013-10-06 23:22:00,
2013-10-06 18:27:00,67.9,20.1,29.78,North,359,13.0,20.0,16,0.00,,---,0.00,72.00,VWS V14.01,2013-10-06 23:27:00,
2013-10-06 18:32:00,67.6,21.3,29.78,NW,319,12.0,16.0,17,0.00,,---,0.00,60.00,VWS V14.01,2013-10-06 23:32:00,
2013-10-06 18:37:00,67.3,22.4,29.78,NW,316,7.0,14.0,18,0.00,,---,0.00,44.00,VWS V14.01,2013-10-06 23:37:00,
2013-10-06 18:42:00,66.9,22.0,29.78,North,0,5.0,11.0,18,0.00,,---,0.00,28.00,VWS V14.01,2013-10-06 23:42:00,
2013-10-06 18:47:00,66.4,22.9,29.79,NW,318,7.0,9.0,19,0.00,,---,0.00,21.00,VWS V14.01,2013-10-06 23:47:00,
2013-10-06 18:52:00,66.0,23.8,29.79,WNW,301,6.0,11.0,20,0.00,,---,0.00,18.00,VWS V14.01,2013-10-06 23:52:00,
2013-10-06 18:57:00,65.5,23.4,29.79,NW,304,7.0,9.0,20,0.00,,---,0.00,11.00,VWS V14.01,2013-10-06 23:57:00,
2013-10-06 19:02:00,64.7,23.9,29.80,WNW,296,7.0,10.0,21,0.00,,---,0.00,7.00,VWS V14.01,2013-10-07 00:02:00,
2013-10-06 19:07:00,64.0,23.3,29.80,NW,305,8.0,10.0,21,0.00,,---,0.00,5.00,VWS V14.01,2013-10-07 00:07:00,
2013-10-06 19:12:00,63.5,22.9,29.80,NW,322,7.0,10.0,21,0.00,,---,0.00,0.00,VWS V14.01,2013-10-07 00:12:00,
2013-10-06 19:17:00,63.1,23.7,29.81,WNW,302,6.0,7.0,22,0.00,,---,0.00,0.00,VWS V14.01,2013-10-07 00:17:00,
2013-10-06 19:22:00,62.4,24.1,29.81,WNW,301,5.0,7.0,23,0.00,,---,0.00,0.00,VWS V14.01,2013-10-07 00:22:00,
2013-10-06 19:27:00,62.0,23.8,29.81,NW,304,6.0,7.0,23,0.00,,---,0.00,0.00,VWS V14.01,2013-10-07 00:27:00,
2013-10-06 19:32:00,61.8,23.6,29.81,WNW,302,7.0,7.0,23,0.00,,---,0.00,0.00,VWS V14.01,2013-10-07 00:32:00,
2013-10-06 19:37:00,61.6,24.5,29.81,NW,304,7.0,8.0,24,0.00,,---,0.00,0.00,VWS V14.01,2013-10-07 00:37:00,
2013-10-06 19:42:00,61.5,24.4,29.81,WNW,295,7.0,8.0,24,0.00,,---,0.00,0.00,VWS V14.01,2013-10-07 00:42:00,
2013-10-06 19:48:00,61.2,25.1,29.82,WNW,296,7.0,8.0,25,0.00,,---,0.00,0.00,VWS V14.01,2013-10-07 00:48:00,
2013-10-06 19:53:00,60.9,24.9,29.82,WNW,299,7.0,7.0,25,0.00,,---,0.00,0.00,VWS V14.01,2013-10-07 00:53:00,
2013-10-06 19:58:00,60.5,25.5,29.82,NW,316,7.0,7.0,26,0.00,,---,0.00,0.00,VWS V14.01,2013-10-07 00:58:00,
2013-10-06 20:03:00,60.4,24.4,29.82,NNW,343,6.0,8.0,25,0.00,,---,0.00,0.00,VWS V14.01,2013-10-07 01:03:00,
2013-10-06 20:08:00,60.2,25.2,29.82,WSW,246,5.0,7.0,26,0.00,,---,0.00,0.00,VWS V14.01,2013-10-07 01:08:00,
2013-10-06 20:13:00,59.9,25.0,29.82,NW,316,6.0,6.0,26,0.00,,---,0.00,0.00,VWS V14.01,2013-10-07 01:13:00,
2013-10-06 20:18:00,59.8,24.9,29.83,North,0,6.0,7.0,26,0.00,,---,0.00,0.00,VWS V14.01,2013-10-07 01:18:00,
2013-10-06 20:23:00,59.6,24.7,29.83,NW,319,8.0,8.0,26,0.00,,---,0.00,0.00,VWS V14.01,2013-10-07 01:23:00,
2013-10-06 20:28:00,59.6,24.7,29.83,North,359,7.0,8.0,26,0.00,,---,0.00,0.00,VWS V14.01,2013-10-07 01:28:00,
2013-10-06 20:33:00,59.6,25.6,29.83,NW,323,8.0,8.0,27,0.00,,---,0.00,0.00,VWS V14.01,2013-10-07 01:33:00,
2013-10-06 20:38:00,59.5,25.5,29.83,NW,319,6.0,7.0,27,0.00,,---,0.00,0.00,VWS V14.01,2013-10-07 01:38:00,
2013-10-06 20:43:00,59.5,25.5,29.83,NW,316,6.0,8.0,27,0.00,,---,0.00,0.00,VWS V14.01,2013-10-07 01:43:00,
2013-10-06 20:48:00,59.3,26.2,29.83,North,0,6.0,7.0,28,0.00,,---,0.00,0.00,VWS V14.01,2013-10-07 01:48:00,
2013-10-06 20:53:00,59.0,26.0,29.83,NW,304,6.0,7.0,28,0.00,,---,0.00,0.00,VWS V14.01,2013-10-07 01:53:00,
2013-10-06 20:58:00,58.4,26.3,29.83,NW,304,6.0,7.0,29,0.00,,---,0.00,0.00,VWS V14.01,2013-10-07 01:58:00,
2013-10-06 21:04:00,58.4,25.5,29.84,NW,305,6.0,7.0,28,0.00,,---,0.00,0.00,VWS V14.01,2013-10-07 02:04:00,
2013-10-06 21:09:00,58.3,25.4,29.84,NW,305,5.0,6.0,28,0.00,,---,0.00,0.00,VWS V14.01,2013-10-07 02:09:00,
2013-10-06 21:14:00,57.6,29.5,29.84,NW,304,5.0,6.0,34,0.00,,---,0.00,0.00,VWS V14.01,2013-10-07 02:14:00,
2013-10-06 21:19:00,56.3,28.3,29.84,WNW,301,6.0,6.0,34,0.00,,---,0.00,0.00,VWS V14.01,2013-10-07 02:19:00,
2013-10-06 21:24:00,54.5,28.1,29.84,WSW,257,7.0,8.0,36,0.00,,---,0.00,0.00,VWS V14.01,2013-10-07 02:24:00,
2013-10-06 21:29:00,53.5,28.5,29.84,WSW,251,7.0,7.0,38,0.00,,---,0.00,0.00,VWS V14.01,2013-10-07 02:29:00,
2013-10-06 21:34:00,52.8,28.5,29.85,WSW,257,6.0,7.0,39,0.00,,---,0.00,0.00,VWS V14.01,2013-10-07 02:34:00,
2013-10-06 21:39:00,52.6,28.4,29.85,WSW,257,5.0,7.0,39,0.00,,---,0.00,0.00,VWS V14.01,2013-10-07 02:39:00,
2013-10-06 21:44:00,52.5,28.9,29.85,West,260,5.0,6.0,40,0.00,,---,0.00,0.00,VWS V14.01,2013-10-07 02:44:00,
2013-10-06 21:49:00,52.3,28.7,29.85,West,265,5.0,6.0,40,0.00,,---,0.00,0.00,VWS V14.01,2013-10-07 02:49:00,
2013-10-06 21:54:00,52.0,29.6,29.85,West,264,6.0,7.0,42,0.00,,---,0.00,0.00,VWS V14.01,2013-10-07 02:54:00,
2013-10-06 21:59:00,51.6,29.9,29.86,West,263,6.0,7.0,43,0.00,,---,0.00,0.00,VWS V14.01,2013-10-07 02:59:00,
2013-10-06 22:04:00,51.4,29.1,29.86,West,263,5.0,7.0,42,0.00,,---,0.00,0.00,VWS V14.01,2013-10-07 03:04:00,
2013-10-06 22:10:00,51.9,27.7,29.86,WNW,284,6.0,7.0,39,0.00,,---,0.00,0.00,VWS V14.01,2013-10-07 03:10:00,
2013-10-06 22:15:00,53.2,27.6,29.86,WNW,284,7.0,7.0,37,0.00,,---,0.00,0.00,VWS V14.01,2013-10-07 03:15:00,
2013-10-06 22:20:00,53.5,27.9,29.86,West,277,5.0,8.0,37,0.00,,---,0.00,0.00,VWS V14.01,2013-10-07 03:20:00,
2013-10-06 22:25:00,53.3,27.7,29.86,WNW,284,7.0,8.0,37,0.00,,---,0.00,0.00,VWS V14.01,2013-10-07 03:25:00,
2013-10-06 22:30:00,53.6,26.6,29.86,WNW,291,6.0,8.0,35,0.00,,---,0.00,0.00,VWS V14.01,2013-10-07 03:30:00,
2013-10-06 22:35:00,53.6,27.3,29.86,West,280,6.0,8.0,36,0.00,,---,0.00,0.00,VWS V14.01,2013-10-07 03:35:00,
2013-10-06 22:40:00,53.6,27.3,29.86,WNW,282,6.0,8.0,36,0.00,,---,0.00,0.00,VWS V14.01,2013-10-07 03:40:00,
2013-10-06 22:45:00,53.6,27.3,29.87,WNW,284,6.0,8.0,36,0.00,,---,0.00,0.00,VWS V14.01,2013-10-07 03:45:00,
2013-10-06 22:50:00,53.5,27.2,29.87,WNW,294,6.0,7.0,36,0.00,,---,0.00,0.00,VWS V14.01,2013-10-07 03:50:00,
2013-10-06 22:55:00,53.5,26.5,29.87,WNW,289,6.0,9.0,35,0.00,,---,0.00,0.00,VWS V14.01,2013-10-07 03:55:00,
2013-10-06 23:00:00,53.3,27.0,29.87,WNW,294,7.0,8.0,36,0.00,,---,0.00,0.00,VWS V14.01,2013-10-07 04:00:00,
2013-10-06 23:01:00,53.3,27.0,29.87,WNW,294,6.0,7.0,36,0.00,,---,0.00,0.00,VWS V14.01,2013-10-07 04:01:00,
2013-10-06 23:03:00,53.3,27.0,29.87,WNW,294,7.0,7.0,36,0.00,,---,0.00,0.00,VWS V14.01,2013-10-07 04:03:00,
2013-10-06 23:08:00,52.9,26.7,29.87,NW,304,7.0,7.0,36,0.00,,---,0.00,0.00,VWS V14.01,2013-10-07 04:08:00,
2013-10-06 23:13:00,52.8,27.3,29.87,NW,318,6.0,8.0,37,0.00,,---,0.00,0.00,VWS V14.01,2013-10-07 04:13:00,
2013-10-06 23:18:00,52.6,27.1,29.87,NW,308,5.0,6.0,37,0.00,,---,0.00,0.00,VWS V14.01,2013-10-07 04:18:00,
2013-10-06 23:23:00,52.3,27.5,29.87,NW,306,4.0,6.0,38,0.00,,---,0.00,0.00,VWS V14.01,2013-10-07 04:23:00,
2013-10-06 23:28:00,51.7,28.8,29.87,WNW,301,5.0,6.0,41,0.00,,---,0.00,0.00,VWS V14.01,2013-10-07 04:28:00,
2013-10-06 23:34:00,50.8,30.8,29.87,WNW,292,5.0,7.0,46,0.00,,---,0.00,0.00,VWS V14.01,2013-10-07 04:34:00,
2013-10-06 23:39:00,49.9,29.4,29.87,WNW,292,6.0,6.0,45,0.00,,---,0.00,0.00,VWS V14.01,2013-10-07 04:39:00,
2013-10-06 23:44:00,50.1,28.5,29.87,WNW,291,3.0,7.0,43,0.00,,---,0.00,0.00,VWS V14.01,2013-10-07 04:44:00,
2013-10-06 23:49:00,50.1,29.0,29.88,West,277,6.0,7.0,44,0.00,,---,0.00,0.00,VWS V14.01,2013-10-07 04:49:00,
2013-10-06 23:54:00,49.5,30.6,29.88,West,278,5.0,6.0,48,0.00,,---,0.00,0.00,VWS V14.01,2013-10-07 04:54:00,
2013-10-06 23:59:00,49.1,29.8,29.88,West,274,5.0,6.0,47,0.00,,---,0.00,0.00,VWS V14.01,2013-10-07 04:59:00,